EDT,Max TemperatureF,Mean TemperatureF,Min TemperatureF,Max Dew PointF,MeanDew PointF,Min DewpointF,Max Humidity, Mean Humidity, Min Humidity, Max Sea Level PressureIn, Mean Sea Level PressureIn, Min Sea Level PressureIn, Max VisibilityMiles, Mean VisibilityMiles, Min VisibilityMiles, Max Wind SpeedMPH, Mean Wind SpeedMPH, Max Gust SpeedMPH,PrecipitationIn, CloudCover, Events, WindDirDegrees
2013-10-1,77,66,55,63,60,55,100,86,50,30.08,30.04,30.01,10,7,0,14,4,20,0.00,4,Fog,221
2013-10-2,78,68,59,68,63,59,100,88,57,30.13,30.08,30.05,10,6,0,6,1,,0.00,4,Fog-Rain,230
2013-10-3,78,70,62,70,65,61,100,87,54,30.09,30.05,30.00,10,7,0,13,4,20,0.05,4,Fog-Rain-Thunderstorm,208
2013-10-4,78,70,62,72,66,63,100,89,65,30.08,30.05,30.03,10,9,2,10,4,,0.23,3,Rain,196
2013-10-5,78,71,64,70,67,64,100,94,74,30.07,30.01,29.91,10,8,1,13,5,18,0.80,5,Rain-Thunderstorm,186
2013-10-6,69,60,50,66,60,41,100,97,71,29.92,29.82,29.71,10,9,2,17,9,24,0.44,8,Rain-Thunderstorm,202
2013-10-7,59,50,42,46,43,41,100,81,55,30.17,29.95,29.82,10,10,7,16,8,24,0.13,4,,258
2013-10-8,68,52,37,50,42,36,100,73,30,30.29,30.23,30.17,10,9,2,9,2,,0.03,0,,110
2013-10-9,71,56,41,46,44,41,100,69,33,30.27,30.22,30.18,10,10,7,7,3,,0.03,0,,109
2013-10-10,73,57,41,46,42,36,100,65,25,30.21,30.16,30.10,10,10,3,6,1,,0.03,0,,72
2013-10-11,78,60,42,50,45,37,100,64,29,30.14,30.08,30.04,10,9,2,7,1,,0.02,0,,81
2013-10-12,78,62,46,57,52,45,100,71,36,30.13,30.08,30.05,10,10,2,6,1,,0.00,1,,168
2013-10-13,69,60,50,59,48,36,100,68,28,30.34,30.26,30.13,10,9,1,14,5,21,0.00,2,,356
2013-10-14,68,54,41,50,43,37,100,71,33,30.37,30.30,30.22,10,10,10,12,5,16,0.00,0,,41
2013-10-15,68,56,44,63,54,45,100,95,78,30.21,30.05,29.93,10,8,0,13,5,21,0.02,5,Fog-Rain,161
2013-10-16,62,52,42,61,52,43,100,83,52,29.98,29.92,29.88,10,9,3,16,8,38,0.24,5,Rain,262
2013-10-17,51,45,39,46,44,39,100,92,76,29.96,29.91,29.85,10,9,5,16,4,24,0.04,5,Rain,250
2013-10-18,62,52,41,45,42,41,100,75,45,30.00,29.95,29.91,10,10,7,18,8,28,0.00,2,,234
2013-10-19,48,44,41,43,39,36,100,87,62,29.96,29.90,29.85,10,8,4,16,4,20,0.14,5,Rain,258
2013-10-20,60,50,39,41,38,34,81,66,42,29.99,29.95,29.93,10,10,10,17,11,25,0.00,2,,217
2013-10-21,62,52,42,48,41,34,94,69,48,29.97,29.93,29.87,10,10,7,17,10,25,0.00,3,Rain,234
2013-10-22,51,40,30,36,29,21,100,71,32,30.02,29.96,29.87,10,10,7,18,8,24,0.00,3,Rain,277
2013-10-23,42,37,32,37,34,32,100,91,76,30.01,29.90,29.80,10,7,2,14,7,25,0.18,8,Rain-Snow,323
2013-10-24,42,37,32,32,32,30,93,82,61,30.24,30.09,30.00,10,10,10,14,8,17,0.00,7,,281
2013-10-25,46,37,28,32,28,23,93,74,40,30.40,30.32,30.24,10,10,10,15,8,21,0.00,1,,265
2013-10-26,48,40,33,36,30,27,93,70,57,30.23,30.04,29.90,10,10,10,24,11,34,0.00,4,,237
2013-10-27,53,42,32,36,32,30,100,75,41,30.10,30.06,30.03,10,10,5,10,3,16,0.00,0,,258
2013-10-28,59,44,30,37,32,28,100,73,34,30.32,30.21,30.08,10,10,5,7,1,,0.00,0,,41
2013-10-29,55,44,32,45,38,32,100,80,51,30.37,30.30,30.21,10,7,0,7,3,,0.00,3,Fog-Snow,107
2013-10-30,60,53,46,61,52,41,100,95,81,30.21,30.12,29.99,10,4,0,10,4,,0.00,8,Fog-Rain,150
2013-10-31,64,60,55,63,58,54,100,94,82,29.98,29.67,29.30,10,8,3,21,11,46,0.49,7,Rain,197